| time (UTC) | temp F | wind direction | speed MPH | gust MPH | rain 1hr in | rain 24hr in | rain mn in | humidity % | barometer mb |
| 20260902072222 | 48 | 23 | 1.0 | 2.0 | 0.00 | 0.00 | 0.00 | 99 | 1015.7 |
| 20260902071202 | 48 | 270 | 1.0 | 2.0 | 0.00 | 0.00 | 0.00 | 99 | 1015.9 |
| 20260902070652 | 48 | 113 | 1.0 | 2.0 | 0.00 | 0.00 | 0.00 | 99 | 1015.9 |
| 20260902070142 | 48 | 135 | 1.0 | 4.0 | 0.00 | 0.00 | 0.00 | 99 | 1016.1 |
| 20260902065631 | 48 | 135 | 1.0 | 4.0 | 0.00 | 0.00 | 0.00 | 99 | 1016.0 |
| 20260902065121 | 48 | 68 | 1.0 | 2.0 | 0.00 | 0.00 | 0.00 | 99 | 1016.1 |
| 20260902064611 | 48 | 45 | 0.0 | 2.0 | 0.00 | 0.00 | 0.00 | 99 | 1016.3 |
| 20260902064101 | 47 | 68 | 1.0 | 2.0 | 0.00 | 0.00 | 0.00 | 99 | 1016.5 |
| 20260902063550 | 47 | 68 | 0.0 | 2.0 | 0.00 | 0.00 | 0.00 | 99 | 1016.5 |
| 20260902063042 | 47 | 68 | 0.0 | 4.0 | 0.00 | 0.00 | 0.00 | 99 | 1016.6 |
| 20260902062530 | 48 | 45 | 1.0 | 4.0 | 0.00 | 0.00 | 0.00 | 99 | 1017.0 |
| 20260902062020 | 48 | 45 | 1.0 | 4.0 | 0.00 | 0.00 | 0.00 | 99 | 1016.9 |
| 20260902061513 | 48 | 113 | 2.0 | 4.0 | 0.00 | 0.00 | 0.00 | 99 | 1017.0 |
| 20260902060452 | 48 | 45 | 2.0 | 4.0 | 0.00 | 0.00 | 0.00 | 99 | 1017.0 |
| 20260902055430 | 49 | 23 | 0.0 | 2.0 | 0.00 | 0.00 | 0.00 | 99 | 1017.1 |
| 20260902054919 | 49 | 68 | 1.0 | 2.0 | 0.00 | 0.00 | 0.00 | 99 | 1017.2 |
| 20260902054409 | 49 | 23 | 1.0 | 2.0 | 0.00 | 0.00 | 0.00 | 99 | 1017.3 |
| 20260902053900 | 49 | 68 | 1.0 | 2.0 | 0.00 | 0.00 | 0.00 | 99 | 1017.5 |
| 20260902053403 | 49 | 113 | 1.0 | 0.0 | 0.00 | 0.00 | 0.00 | 99 | 1017.5 |
| 20260902052625 | 48 | 23 | 1.0 | 4.0 | 0.00 | 0.00 | 0.00 | 99 | 1017.7 |
| 20260902051605 | 49 | 45 | 0.0 | 2.0 | 0.00 | 0.00 | 0.00 | 99 | 1017.7 |
| 20260902051055 | 49 | 68 | 1.0 | 4.0 | 0.00 | 0.00 | 0.00 | 99 | 1017.8 |
| 20260902050544 | 48 | 45 | 0.0 | 4.0 | 0.00 | 0.00 | 0.00 | 99 | 1017.8 |
| 20260902050034 | 48 | 45 | 2.0 | 4.0 | 0.00 | 0.00 | 0.00 | 99 | 1018.0 |
| 20260902045524 | 49 | 90 | 1.0 | 4.0 | 0.00 | 0.00 | 0.00 | 99 | 1018.1 |
| 20260902045014 | 49 | 23 | 1.0 | 2.0 | 0.00 | 0.00 | 0.00 | 99 | 1018.1 |
| 20260902044504 | 49 | 90 | 1.0 | 2.0 | 0.00 | 0.00 | 0.00 | 99 | 1018.2 |
| 20260902043954 | 49 | 68 | 1.0 | 2.0 | 0.00 | 0.00 | 0.00 | 99 | 1018.2 |
| 20260902043443 | 49 | 68 | 1.0 | 2.0 | 0.00 | 0.00 | 0.00 | 99 | 1018.3 |
| 20260902042933 | 49 | 113 | 0.0 | 2.0 | 0.00 | 0.00 | 0.00 | 99 | 1018.3 |
| 20260902042423 | 49 | 180 | 1.0 | 2.0 | 0.00 | 0.00 | 0.00 | 99 | 1018.4 |
| 20260902041913 | 49 | 90 | 0.0 | 2.0 | 0.00 | 0.00 | 0.00 | 99 | 1018.3 |
| 20260902041403 | 49 | 113 | 1.0 | 2.0 | 0.00 | 0.00 | 0.00 | 99 | 1018.4 |
| 20260902040852 | 49 | 68 | 2.0 | 2.0 | 0.00 | 0.00 | 0.00 | 99 | 1018.3 |
| 20260902035832 | 50 | 68 | 1.0 | 2.0 | 0.00 | 0.00 | 0.00 | 99 | 1018.2 |
| 20260902034816 | 49 | 68 | 0.0 | 2.0 | 0.00 | 0.00 | 0.00 | 99 | 1018.1 |
| 20260902034302 | 49 | 68 | 0.0 | 2.0 | 0.00 | 0.00 | 0.00 | 99 | 1018.3 |
| 20260902033752 | 49 | 293 | 0.0 | 2.0 | 0.00 | 0.00 | 0.00 | 99 | 1018.4 |
| 20260902033241 | 49 | 90 | 0.0 | 2.0 | 0.00 | 0.00 | 0.00 | 99 | 1018.4 |
| 20260902032731 | 49 | 68 | 1.0 | 2.0 | 0.00 | 0.00 | 0.00 | 99 | 1018.4 |
| 20260902031711 | 49 | 45 | 0.0 | 2.0 | 0.00 | 0.00 | 0.00 | 98 | 1018.5 |
| 20260902031201 | 49 | 225 | 0.0 | 2.0 | 0.00 | 0.00 | 0.00 | 98 | 1018.4 |
| 20260902030652 | 49 | 68 | 2.0 | 2.0 | 0.00 | 0.00 | 0.00 | 98 | 1018.6 |
| 20260902030140 | 50 | 68 | 2.0 | 2.0 | 0.00 | 0.00 | 0.00 | 98 | 1018.4 |
| 20260902025631 | 50 | 90 | 0.0 | 2.0 | 0.00 | 0.00 | 0.00 | 98 | 1018.6 |
| 20260902025121 | 50 | 45 | 0.0 | 0.0 | 0.00 | 0.00 | 0.00 | 98 | 1018.8 |
| 20260902024610 | 50 | 180 | 0.0 | 0.0 | 0.00 | 0.00 | 0.00 | 98 | 1018.7 |
| 20260902024101 | 50 | 158 | 0.0 | 2.0 | 0.00 | 0.00 | 0.00 | 98 | 1019.0 |
| 20260902023550 | 50 | 158 | 1.0 | 2.0 | 0.00 | 0.00 | 0.00 | 98 | 1019.1 |
| 20260902023042 | 50 | 180 | 0.0 | 2.0 | 0.00 | 0.00 | 0.00 | 98 | 1019.0 |
| 20260902022019 | 50 | 68 | 0.0 | 2.0 | 0.00 | 0.00 | 0.00 | 98 | 1019.2 |
| 20260902021512 | 51 | 68 | 1.0 | 2.0 | 0.00 | 0.00 | 0.00 | 98 | 1019.1 |
| 20260902020448 | 51 | 68 | 0.0 | 2.0 | 0.00 | 0.00 | 0.00 | 98 | 1019.3 |
| 20260902015939 | 51 | 338 | 1.0 | 2.0 | 0.00 | 0.00 | 0.00 | 98 | 1019.3 |
| 20260902015428 | 51 | 68 | 0.0 | 2.0 | 0.00 | 0.00 | 0.00 | 98 | 1019.2 |
| 20260902014409 | 51 | 45 | 0.0 | 2.0 | 0.00 | 0.00 | 0.00 | 98 | 1019.4 |
| 20260902013858 | 51 | 68 | 1.0 | 2.0 | 0.00 | 0.00 | 0.00 | 98 | 1019.3 |
| 20260902013349 | 51 | 90 | 0.0 | 2.0 | 0.00 | 0.00 | 0.00 | 98 | 1019.4 |
| 20260902012838 | 51 | 68 | 0.0 | 2.0 | 0.00 | 0.00 | 0.00 | 98 | 1019.1 |
| 20260902012329 | 51 | 158 | 0.0 | 4.0 | 0.00 | 0.00 | 0.00 | 98 | 1019.3 |
| 20260902011818 | 51 | 23 | 2.0 | 4.0 | 0.00 | 0.00 | 0.00 | 98 | 1019.4 |
| 20260902011307 | 51 | 45 | 0.0 | 2.0 | 0.00 | 0.00 | 0.00 | 98 | 1019.2 |
| 20260902005737 | 51 | 45 | 0.0 | 2.0 | 0.00 | 0.00 | 0.00 | 98 | 1019.0 |
| 20260902004721 | 51 | 90 | 0.0 | 2.0 | 0.00 | 0.00 | 0.00 | 97 | 1019.2 |
| 20260902004206 | 52 | 113 | 1.0 | 2.0 | 0.00 | 0.00 | 0.00 | 97 | 1019.2 |
| 20260902003657 | 52 | 203 | 0.0 | 2.0 | 0.00 | 0.00 | 0.00 | 97 | 1019.0 |
| 20260902003146 | 52 | 180 | 0.0 | 2.0 | 0.00 | 0.00 | 0.00 | 97 | 1019.2 |
| 20260902002637 | 52 | 203 | 0.0 | 2.0 | 0.00 | 0.00 | 0.00 | 97 | 1019.0 |
| 20260902002127 | 52 | 68 | 0.0 | 2.0 | 0.00 | 0.00 | 0.00 | 97 | 1018.9 |
| 20260902001616 | 52 | 0 | 0.0 | 2.0 | 0.00 | 0.00 | 0.00 | 97 | 1019.0 |
| 20260902001106 | 52 | 68 | 0.0 | 2.0 | 0.00 | 0.00 | 0.00 | 97 | 1019.0 |
| 20260902000600 | 52 | 338 | 0.0 | 2.0 | 0.00 | 0.00 | 0.00 | 97 | 1019.2 |
| 20260902000052 | 52 | 68 | 0.0 | 2.0 | 0.00 | 0.00 | 0.00 | 97 | 1018.9 |
| 20260901235536 | 52 | 45 | 0.0 | 2.0 | 0.00 | 0.00 | 0.00 | 97 | 1019.0 |
| 20260901234515 | 52 | 68 | 0.0 | 2.0 | 0.00 | 0.00 | 0.00 | 97 | 1019.2 |
| 20260901233455 | 52 | 113 | 0.0 | 2.0 | 0.00 | 0.00 | 0.00 | 97 | 1019.1 |
| 20260901232944 | 52 | 113 | 0.0 | 2.0 | 0.00 | 0.00 | 0.00 | 97 | 1019.2 |
| 20260901232434 | 52 | 0 | 0.0 | 2.0 | 0.00 | 0.00 | 0.00 | 97 | 1019.3 |
| 20260901231925 | 52 | 315 | 0.0 | 2.0 | 0.00 | 0.00 | 0.00 | 97 | 1019.2 |
| 20260901231414 | 52 | 45 | 0.0 | 2.0 | 0.00 | 0.00 | 0.00 | 97 | 1019.2 |
| 20260901230904 | 52 | 135 | 0.0 | 2.0 | 0.00 | 0.00 | 0.00 | 96 | 1019.1 |
| 20260901230353 | 52 | 23 | 2.0 | 2.0 | 0.00 | 0.00 | 0.00 | 96 | 1019.4 |
| 20260901225334 | 52 | 68 | 1.0 | 2.0 | 0.00 | 0.00 | 0.00 | 96 | 1019.1 |
| 20260901224823 | 52 | 68 | 1.0 | 2.0 | 0.00 | 0.00 | 0.00 | 96 | 1019.1 |
| 20260901223802 | 52 | 203 | 1.0 | 2.0 | 0.00 | 0.00 | 0.00 | 96 | 1019.0 |
| 20260901223252 | 52 | 23 | 1.0 | 2.0 | 0.00 | 0.00 | 0.00 | 95 | 1019.0 |
| 20260901222744 | 53 | 68 | 0.0 | 2.0 | 0.00 | 0.00 | 0.00 | 95 | 1019.3 |
| 20260901222232 | 53 | 68 | 1.0 | 2.0 | 0.00 | 0.00 | 0.00 | 95 | 1019.2 |
| 20260901221723 | 53 | 45 | 1.0 | 2.0 | 0.00 | 0.00 | 0.00 | 95 | 1019.0 |
| 20260901221213 | 53 | 113 | 0.0 | 2.0 | 0.00 | 0.00 | 0.00 | 95 | 1019.1 |
| 20260901220702 | 53 | 68 | 0.0 | 2.0 | 0.00 | 0.00 | 0.00 | 95 | 1019.2 |
| 20260901220152 | 53 | 68 | 0.0 | 2.0 | 0.00 | 0.00 | 0.00 | 95 | 1019.0 |
| 20260901215641 | 53 | 0 | 0.0 | 2.0 | 0.00 | 0.00 | 0.00 | 94 | 1018.8 |
| 20260901215132 | 53 | 68 | 0.0 | 2.0 | 0.00 | 0.00 | 0.00 | 94 | 1018.8 |
| 20260901214622 | 53 | 68 | 0.0 | 2.0 | 0.00 | 0.00 | 0.00 | 94 | 1018.8 |
| 20260901214111 | 53 | 0 | 0.0 | 2.0 | 0.00 | 0.00 | 0.00 | 94 | 1018.8 |
| 20260901213051 | 53 | 338 | 0.0 | 2.0 | 0.00 | 0.00 | 0.00 | 94 | 1018.6 |
| 20260901212541 | 53 | 158 | 0.0 | 2.0 | 0.00 | 0.00 | 0.00 | 94 | 1018.6 |
| 20260901212030 | 53 | 0 | 0.0 | 4.0 | 0.00 | 0.00 | 0.00 | 94 | 1018.6 |
| 20260901211521 | 53 | 113 | 0.0 | 4.0 | 0.00 | 0.00 | 0.00 | 94 | 1018.4 |
| 20260901210500 | 54 | 338 | 0.0 | 2.0 | 0.00 | 0.00 | 0.00 | 93 | 1018.6 |
| 20260901205950 | 54 | 68 | 0.0 | 2.0 | 0.00 | 0.00 | 0.00 | 93 | 1018.5 |
| 20260901205440 | 54 | 23 | 0.0 | 2.0 | 0.00 | 0.00 | 0.00 | 93 | 1018.5 |
| 20260901204930 | 54 | 270 | 0.0 | 2.0 | 0.00 | 0.00 | 0.00 | 93 | 1018.5 |
| 20260901204420 | 54 | 68 | 0.0 | 2.0 | 0.00 | 0.00 | 0.00 | 92 | 1018.6 |
| 20260901203910 | 54 | 113 | 0.0 | 2.0 | 0.00 | 0.00 | 0.00 | 92 | 1018.8 |
| 20260901203400 | 55 | 23 | 0.0 | 2.0 | 0.00 | 0.00 | 0.00 | 92 | 1018.8 |
| 20260901202850 | 55 | 225 | 0.0 | 2.0 | 0.00 | 0.00 | 0.00 | 92 | 1018.7 |
| 20260901202343 | 55 | 225 | 0.0 | 2.0 | 0.00 | 0.00 | 0.00 | 92 | 1018.7 |
| 20260901201829 | 55 | 23 | 0.0 | 4.0 | 0.00 | 0.00 | 0.00 | 92 | 1018.5 |
| 20260901200258 | 55 | 180 | 2.0 | 4.0 | 0.00 | 0.00 | 0.00 | 92 | 1018.6 |
| 20260901195748 | 55 | 0 | 0.0 | 2.0 | 0.00 | 0.00 | 0.00 | 91 | 1018.4 |
| 20260901194728 | 55 | 293 | 0.0 | 2.0 | 0.00 | 0.00 | 0.00 | 91 | 1018.4 |
| 20260901193708 | 55 | 315 | 0.0 | 4.0 | 0.00 | 0.00 | 0.00 | 91 | 1018.2 |
| 20260901193158 | 55 | 248 | 0.0 | 4.0 | 0.00 | 0.00 | 0.00 | 91 | 1018.5 |
| 20260901192653 | 55 | 90 | 0.0 | 2.0 | 0.00 | 0.00 | 0.00 | 91 | 1018.2 |
| 20260901191628 | 55 | 45 | 1.0 | 4.0 | 0.00 | 0.00 | 0.00 | 91 | 1018.2 |
| 20260901191118 | 55 | 203 | 2.0 | 4.0 | 0.00 | 0.00 | 0.00 | 91 | 1018.1 |
| 20260901190607 | 55 | 248 | 0.0 | 4.0 | 0.00 | 0.00 | 0.00 | 90 | 1018.2 |
| 20260901190101 | 56 | 248 | 2.0 | 4.0 | 0.00 | 0.00 | 0.00 | 89 | 1018.1 |
| 20260901185038 | 56 | 338 | 0.0 | 2.0 | 0.00 | 0.00 | 0.00 | 88 | 1018.3 |
| 20260901184526 | 57 | 113 | 1.0 | 4.0 | 0.00 | 0.00 | 0.00 | 87 | 1018.1 |
| 20260901184017 | 57 | 270 | 0.0 | 4.0 | 0.00 | 0.00 | 0.00 | 87 | 1018.2 |
| 20260901183506 | 57 | 45 | 2.0 | 4.0 | 0.00 | 0.00 | 0.00 | 86 | 1018.1 |
| 20260901182957 | 58 | 68 | 0.0 | 2.0 | 0.00 | 0.00 | 0.00 | 85 | 1018.3 |
| 20260901182446 | 58 | 338 | 0.0 | 2.0 | 0.00 | 0.00 | 0.00 | 83 | 1018.4 |
| 20260901181938 | 59 | 315 | 1.0 | 2.0 | 0.00 | 0.00 | 0.00 | 83 | 1018.4 |
| 20260901181426 | 59 | 45 | 0.0 | 2.0 | 0.00 | 0.00 | 0.00 | 83 | 1018.4 |
| 20260901180916 | 58 | 248 | 0.0 | 2.0 | 0.00 | 0.00 | 0.00 | 84 | 1018.3 |
| 20260901175345 | 58 | 203 | 0.0 | 2.0 | 0.00 | 0.00 | 0.00 | 85 | 1018.3 |
| 20260901174836 | 59 | 315 | 1.0 | 4.0 | 0.00 | 0.00 | 0.00 | 83 | 1018.3 |
| 20260901174324 | 59 | 0 | 0.0 | 4.0 | 0.00 | 0.00 | 0.00 | 82 | 1018.4 |
| 20260901173814 | 59 | 0 | 0.0 | 4.0 | 0.00 | 0.00 | 0.00 | 82 | 1018.3 |
| 20260901173304 | 59 | 270 | 0.0 | 4.0 | 0.00 | 0.00 | 0.00 | 82 | 1018.5 |
| 20260901172755 | 59 | 23 | 1.0 | 4.0 | 0.00 | 0.00 | 0.00 | 82 | 1018.7 |
| 20260901172244 | 60 | 338 | 0.0 | 4.0 | 0.00 | 0.00 | 0.00 | 82 | 1018.9 |
| 20260901171735 | 61 | 90 | 2.0 | 4.0 | 0.00 | 0.00 | 0.00 | 80 | 1018.6 |
| 20260901170713 | 60 | 248 | 2.0 | 4.0 | 0.00 | 0.00 | 0.00 | 80 | 1018.9 |
| 20260901170204 | 59 | 248 | 0.0 | 4.0 | 0.00 | 0.00 | 0.00 | 82 | 1019.1 |
| 20260901165144 | 60 | 338 | 0.0 | 4.0 | 0.00 | 0.00 | 0.00 | 82 | 1019.0 |
| 20260901164633 | 59 | 23 | 1.0 | 4.0 | 0.00 | 0.00 | 0.00 | 84 | 1019.1 |
| 20260901164129 | 59 | 180 | 1.0 | 2.0 | 0.00 | 0.00 | 0.00 | 84 | 1019.3 |
| 20260901163613 | 58 | 293 | 0.0 | 2.0 | 0.00 | 0.00 | 0.00 | 84 | 1019.4 |
| 20260901163102 | 58 | 248 | 1.0 | 2.0 | 0.00 | 0.00 | 0.00 | 84 | 1019.4 |
| 20260901162553 | 59 | 225 | 1.0 | 2.0 | 0.00 | 0.00 | 0.00 | 84 | 1019.4 |
| 20260901162042 | 58 | 315 | 0.0 | 4.0 | 0.00 | 0.00 | 0.00 | 85 | 1019.5 |
| 20260901161537 | 58 | 248 | 2.0 | 4.0 | 0.00 | 0.00 | 0.00 | 85 | 1019.5 |
| 20260901161022 | 58 | 225 | 0.0 | 4.0 | 0.00 | 0.00 | 0.00 | 85 | 1019.6 |
| 20260901160512 | 57 | 248 | 1.0 | 4.0 | 0.00 | 0.00 | 0.00 | 86 | 1019.5 |
| 20260901160001 | 58 | 338 | 0.0 | 2.0 | 0.00 | 0.00 | 0.00 | 86 | 1019.9 |
| 20260901155452 | 57 | 315 | 0.0 | 2.0 | 0.00 | 0.00 | 0.00 | 87 | 1019.7 |
| 20260901154432 | 57 | 180 | 1.0 | 4.0 | 0.00 | 0.00 | 0.00 | 87 | 1019.5 |
| 20260901153921 | 56 | 203 | 1.0 | 4.0 | 0.00 | 0.00 | 0.00 | 88 | 1019.6 |
| 20260901153412 | 57 | 45 | 0.0 | 4.0 | 0.00 | 0.00 | 0.00 | 89 | 1019.7 |
| 20260901152351 | 56 | 68 | 1.0 | 4.0 | 0.00 | 0.00 | 0.00 | 90 | 1019.4 |
| 20260901151840 | 56 | 225 | 2.0 | 4.0 | 0.00 | 0.00 | 0.00 | 90 | 1019.7 |
| 20260901151330 | 56 | 225 | 1.0 | 2.0 | 0.00 | 0.00 | 0.00 | 90 | 1019.7 |
| 20260901150820 | 56 | 338 | 1.0 | 7.0 | 0.00 | 0.00 | 0.00 | 90 | 1019.7 |
| 20260901150311 | 55 | 225 | 2.0 | 7.0 | 0.00 | 0.00 | 0.00 | 91 | 1019.7 |
| 20260901145801 | 56 | 225 | 2.0 | 4.0 | 0.00 | 0.00 | 0.00 | 90 | 1020.0 |
| 20260901145249 | 55 | 225 | 1.0 | 4.0 | 0.00 | 0.00 | 0.00 | 91 | 1020.0 |
| 20260901144230 | 56 | 293 | 2.0 | 4.0 | 0.00 | 0.00 | 0.00 | 91 | 1020.1 |
| 20260901143720 | 55 | 68 | 1.0 | 4.0 | 0.00 | 0.00 | 0.00 | 92 | 1020.0 |
| 20260901143210 | 55 | 225 | 2.0 | 4.0 | 0.00 | 0.00 | 0.00 | 92 | 1019.9 |
| 20260901142658 | 55 | 158 | 1.0 | 4.0 | 0.00 | 0.00 | 0.00 | 92 | 1019.8 |
| 20260901142149 | 55 | 225 | 1.0 | 6.0 | 0.00 | 0.00 | 0.00 | 92 | 1019.8 |
| 20260901141639 | 55 | 180 | 3.0 | 6.0 | 0.00 | 0.00 | 0.00 | 93 | 1019.7 |
| 20260901141128 | 55 | 158 | 2.0 | 4.0 | 0.00 | 0.00 | 0.00 | 93 | 1019.9 |
| 20260901140618 | 55 | 203 | 1.0 | 4.0 | 0.00 | 0.00 | 0.00 | 94 | 1019.9 |
| 20260901135049 | 55 | 203 | 2.0 | 6.0 | 0.00 | 0.00 | 0.00 | 95 | 1019.8 |
| 20260901134538 | 54 | 248 | 2.0 | 7.0 | 0.00 | 0.00 | 0.00 | 95 | 1019.7 |
| 20260901134032 | 54 | 203 | 2.0 | 7.0 | 0.00 | 0.00 | 0.00 | 96 | 1019.6 |
| 20260901133517 | 54 | 225 | 1.0 | 9.0 | 0.00 | 0.00 | 0.00 | 96 | 1020.0 |
| 20260901133008 | 54 | 225 | 2.0 | 9.0 | 0.00 | 0.00 | 0.00 | 96 | 1019.9 |
| 20260901132458 | 54 | 203 | 1.0 | 4.0 | 0.00 | 0.00 | 0.00 | 96 | 1019.9 |
| 20260901131947 | 54 | 90 | 2.0 | 4.0 | 0.00 | 0.00 | 0.00 | 96 | 1019.6 |
| 20260901131437 | 54 | 225 | 2.0 | 4.0 | 0.00 | 0.00 | 0.00 | 97 | 1019.8 |
| 20260901130928 | 54 | 158 | 2.0 | 6.0 | 0.00 | 0.00 | 0.00 | 97 | 1020.1 |
| 20260901130417 | 53 | 225 | 2.0 | 6.0 | 0.00 | 0.00 | 0.00 | 97 | 1020.1 |
| 20260901124847 | 53 | 113 | 2.0 | 4.0 | 0.00 | 0.00 | 0.00 | 97 | 1019.8 |
| 20260901124336 | 53 | 113 | 1.0 | 4.0 | 0.00 | 0.00 | 0.00 | 98 | 1019.8 |
| 20260901123827 | 53 | 23 | 2.0 | 4.0 | 0.00 | 0.00 | 0.00 | 98 | 1019.8 |
| 20260901123316 | 54 | 225 | 2.0 | 4.0 | 0.00 | 0.00 | 0.00 | 98 | 1019.7 |
| 20260901122806 | 54 | 158 | 1.0 | 4.0 | 0.00 | 0.00 | 0.00 | 98 | 1019.6 |
| 20260901122257 | 54 | 158 | 2.0 | 4.0 | 0.00 | 0.00 | 0.00 | 98 | 1019.5 |
| 20260901121745 | 54 | 113 | 1.0 | 4.0 | 0.00 | 0.00 | 0.00 | 98 | 1019.4 |
| 20260901121236 | 53 | 68 | 0.0 | 6.0 | 0.00 | 0.00 | 0.00 | 98 | 1019.4 |
| 20260901120726 | 53 | 270 | 1.0 | 6.0 | 0.00 | 0.00 | 0.00 | 98 | 1019.5 |
| 20260901120216 | 53 | 135 | 1.0 | 4.0 | 0.00 | 0.00 | 0.00 | 98 | 1019.5 |
| 20260901115706 | 53 | 203 | 2.0 | 4.0 | 0.00 | 0.00 | 0.00 | 98 | 1019.6 |
| 20260901115155 | 53 | 135 | 1.0 | 4.0 | 0.00 | 0.00 | 0.00 | 98 | 1019.2 |
| 20260901114644 | 53 | 180 | 2.0 | 4.0 | 0.00 | 0.00 | 0.00 | 98 | 1019.2 |
| 20260901114135 | 53 | 203 | 2.0 | 4.0 | 0.00 | 0.00 | 0.00 | 98 | 1019.1 |
| 20260901113625 | 53 | 315 | 1.0 | 4.0 | 0.00 | 0.00 | 0.00 | 98 | 1019.0 |
| 20260901113114 | 53 | 158 | 2.0 | 4.0 | 0.00 | 0.00 | 0.00 | 98 | 1019.0 |
| 20260901112604 | 53 | 135 | 1.0 | 2.0 | 0.00 | 0.00 | 0.00 | 98 | 1018.9 |
| 20260901112054 | 53 | 203 | 1.0 | 2.0 | 0.00 | 0.00 | 0.00 | 98 | 1018.9 |
| 20260901111544 | 53 | 158 | 1.0 | 4.0 | 0.00 | 0.00 | 0.00 | 98 | 1018.6 |
| 20260901110524 | 53 | 135 | 1.0 | 4.0 | 0.00 | 0.00 | 0.00 | 98 | 1018.5 |
| 20260901110014 | 53 | 90 | 1.0 | 4.0 | 0.00 | 0.00 | 0.00 | 98 | 1018.6 |
| 20260901105503 | 53 | 203 | 2.0 | 4.0 | 0.00 | 0.00 | 0.00 | 98 | 1018.4 |
| 20260901104953 | 53 | 68 | 1.0 | 4.0 | 0.00 | 0.00 | 0.00 | 98 | 1018.5 |
| 20260901104443 | 53 | 113 | 1.0 | 4.0 | 0.00 | 0.00 | 0.00 | 98 | 1018.6 |
| 20260901103933 | 53 | 203 | 1.0 | 4.0 | 0.00 | 0.00 | 0.00 | 98 | 1018.3 |
| 20260901103423 | 53 | 90 | 1.0 | 4.0 | 0.00 | 0.00 | 0.00 | 98 | 1018.2 |
| 20260901102912 | 53 | 113 | 1.0 | 4.0 | 0.00 | 0.00 | 0.00 | 98 | 1018.3 |
| 20260901102403 | 53 | 225 | 0.0 | 2.0 | 0.00 | 0.00 | 0.00 | 98 | 1018.2 |
| 20260901101852 | 53 | 203 | 1.0 | 2.0 | 0.00 | 0.00 | 0.00 | 98 | 1018.0 |
| 20260901101342 | 53 | 203 | 1.0 | 2.0 | 0.00 | 0.00 | 0.00 | 98 | 1018.1 |
| 20260901100832 | 53 | 135 | 2.0 | 2.0 | 0.00 | 0.00 | 0.00 | 98 | 1018.0 |
| 20260901095811 | 53 | 203 | 2.0 | 4.0 | 0.00 | 0.00 | 0.00 | 98 | 1017.9 |
| 20260901095301 | 53 | 203 | 1.0 | 6.0 | 0.00 | 0.00 | 0.00 | 98 | 1017.8 |
| 20260901094748 | 53 | 225 | 2.0 | 6.0 | 0.00 | 0.00 | 0.00 | 98 | 1017.7 |
| 20260901094241 | 53 | 338 | 2.0 | 6.0 | 0.00 | 0.00 | 0.00 | 98 | 1018.0 |
| 20260901093731 | 53 | 270 | 1.0 | 4.0 | 0.00 | 0.00 | 0.00 | 98 | 1017.7 |
| 20260901093221 | 53 | 225 | 1.0 | 4.0 | 0.00 | 0.00 | 0.00 | 98 | 1017.9 |
| 20260901092710 | 53 | 203 | 2.0 | 4.0 | 0.00 | 0.00 | 0.00 | 98 | 1017.9 |
| 20260901092201 | 52 | 158 | 1.0 | 2.0 | 0.00 | 0.00 | 0.00 | 98 | 1018.1 |
| 20260901091656 | 52 | 68 | 1.0 | 2.0 | 0.00 | 0.00 | 0.00 | 98 | 1018.0 |
| 20260901091140 | 52 | 203 | 0.0 | 2.0 | 0.00 | 0.00 | 0.00 | 98 | 1018.0 |
| 20260901090635 | 52 | 158 | 1.0 | 4.0 | 0.00 | 0.00 | 0.00 | 98 | 1017.9 |
| 20260901090120 | 52 | 158 | 0.0 | 4.0 | 0.00 | 0.00 | 0.00 | 98 | 1017.8 |
| 20260901085610 | 52 | 248 | 1.0 | 4.0 | 0.00 | 0.00 | 0.00 | 98 | 1017.9 |
| 20260901085100 | 52 | 225 | 1.0 | 4.0 | 0.00 | 0.00 | 0.00 | 98 | 1017.9 |
| 20260901084550 | 52 | 135 | 1.0 | 4.0 | 0.00 | 0.00 | 0.00 | 98 | 1018.0 |
| 20260901084039 | 52 | 158 | 1.0 | 4.0 | 0.00 | 0.00 | 0.00 | 98 | 1018.0 |
| 20260901082509 | 52 | 203 | 2.0 | 4.0 | 0.00 | 0.00 | 0.00 | 98 | 1018.0 |
| 20260901081959 | 52 | 248 | 1.0 | 4.0 | 0.00 | 0.00 | 0.00 | 98 | 1017.7 |
| 20260901081449 | 52 | 180 | 1.0 | 6.0 | 0.00 | 0.00 | 0.00 | 98 | 1017.6 |
| 20260901080939 | 52 | 203 | 2.0 | 6.0 | 0.00 | 0.00 | 0.00 | 98 | 1017.5 |
| 20260901080429 | 52 | 180 | 1.0 | 6.0 | 0.00 | 0.00 | 0.00 | 98 | 1017.5 |
| 20260901075408 | 52 | 203 | 1.0 | 4.0 | 0.00 | 0.00 | 0.00 | 98 | 1017.5 |
| 20260901074858 | 52 | 203 | 2.0 | 4.0 | 0.00 | 0.00 | 0.00 | 98 | 1017.9 |
| 20260901073332 | 51 | 90 | 1.0 | 2.0 | 0.00 | 0.00 | 0.00 | 98 | 1017.4 |